This is the latest recevied weather packets stored in our database for station/object SP1BMW-13. If no packets are shown the sender has not sent any weather packets the latest 10 day(s).
| Time | Temp. | Humidity | Pressure | Rain* | Wind** | Luminosity | Snow |
|---|---|---|---|---|---|---|---|
| 1787752814 | 22.78° C | 47% | 1020.8 hPa | 0 mm | 0.45 m/s, 42° | 145 W/m² | - |
| 1787752754 | 22.78° C | 47% | 1020.9 hPa | 0 mm | 0 m/s | 501 W/m² | - |
| 1787752694 | 22.78° C | 49% | 1020.7 hPa | 0 mm | 0.45 m/s, 38° | 474 W/m² | - |
| 1787752634 | 22.78° C | 47% | 1020.9 hPa | 0 mm | 0.45 m/s, 51° | 141 W/m² | - |
| 1787752574 | 22.78° C | 46% | 1020.8 hPa | 0 mm | 0.45 m/s, 38° | 129 W/m² | - |
| 1787752514 | 22.78° C | 46% | 1020.8 hPa | 0 mm | 0.89 m/s, 86° | 125 W/m² | - |
| 1787752454 | 22.78° C | 47% | 1020.9 hPa | 0 mm | 0.45 m/s, 63° | 121 W/m² | - |
| 1787752394 | 22.78° C | 47% | 1020.9 hPa | 0 mm | 0.45 m/s, 81° | 113 W/m² | - |
| 1787752334 | 22.78° C | 48% | 1020.8 hPa | 0 mm | 0.45 m/s, 158° | 104 W/m² | - |
| 1787752274 | 22.78° C | 46% | 1020.9 hPa | 0 mm | 0.89 m/s, 56° | 98 W/m² | - |
| 1787752214 | 23.33° C | 49% | 1020.9 hPa | 0 mm | 0 m/s | 93 W/m² | - |
| 1787752154 | 23.33° C | 45% | 1020.8 hPa | 0 mm | 0.89 m/s, 44° | 90 W/m² | - |
| 1787752094 | 23.33° C | 45% | 1021 hPa | 0 mm | 1.34 m/s, 46° | 91 W/m² | - |
| 1787752034 | 23.33° C | 45% | 1021 hPa | 0 mm | 0.45 m/s, 32° | 89 W/m² | - |
| 1787751974 | 23.89° C | 45% | 1021 hPa | 0 mm | 0.89 m/s, 21° | 90 W/m² | - |
| 1787751914 | 23.89° C | 43% | 1020.8 hPa | 0 mm | 1.79 m/s, 35° | 94 W/m² | - |
| 1787751854 | 23.89° C | 44% | 1020.8 hPa | 0 mm | 0.89 m/s, 29° | 100 W/m² | - |
| 1787751794 | 23.89° C | 43% | 1020.8 hPa | 0 mm | 1.34 m/s, 19° | 113 W/m² | - |
| 1787751734 | 23.89° C | 43% | 1020.7 hPa | 0 mm | 0.45 m/s, 40° | 148 W/m² | - |
| 1787751674 | 23.89° C | 45% | 1020.8 hPa | 0 mm | 0 m/s | 284 W/m² | - |
| 1787751614 | 24.44° C | 43% | 1021 hPa | 0 mm | 1.79 m/s, 31° | 131 W/m² | - |
| 1787751554 | 24.44° C | 43% | 1020.9 hPa | 0 mm | 0.89 m/s, 49° | 123 W/m² | - |
| 1787751494 | 24.44° C | 43% | 1021 hPa | 0 mm | 0 m/s | 131 W/m² | - |
| 1787751434 | 24.44° C | 44% | 1020.8 hPa | 0 mm | 0.45 m/s, 29° | 280 W/m² | - |
| 1787751374 | 25° C | 42% | 1020.8 hPa | 0 mm | 0.89 m/s, 32° | 360 W/m² | - |
* Rain latest hour (hover to see other rain measurements)
** Current wind speed in m/s (hover to see current wind gust speed)